Location: Bald Rock
(37.3738°N, 119.9354°W)
Time: 21:52:19
(UTC+00:00)

CENTAUR R/B - Pass Details

Date: 08 September 2024
Orbit: 661 x 1523 km, 63.4° (Epoch: 12 October)

Event Time Altitude Azimuth Distance (km) Brightness Sun altitude
Exits shadow 12:51:44 11° 244° (WSW) 2,287 3.8 -9.6°
Maximum altitude 12:56:37 41° 313° (NW) 1,305 3.0 -8.6°
Drops below altitude 10° 13:02:55 10° 22° (NNE) 2,903 5.5 -7.4°
Sets 13:06:04 0° 29° (NNE) 4,013 6.4 -6.8°
